Simultaneous Nadir Overpasses (SNOs) Predictions

Prediction of SNOs between GOES-16 and FY3D Satellite Orbit:

Table of predicted SNOs for the next 14.0 days since TLE Epoch: 5/25/2024
Index Date Time (GOES-16) GOES-16 Lat,Lon FY3D Lat,Lon Distance(km) Time Diff (sec)
1 05/25/2024 19:40:04 -0.00, -75.20 -0.45, -77.15 222.02 80
2 05/26/2024 19:18:51 0.00, -75.21 0.58, -72.66 291.02 80
3 05/28/2024 07:43:37 0.00, -75.22 0.61, -77.96 312.38 80
4 05/29/2024 07:22:24 0.00, -75.22 -0.43, -73.47 201.01 80
5 05/30/2024 19:47:18 -0.01, -75.23 -0.84, -78.80 407.24 80
6 05/31/2024 19:26:05 -0.00, -75.24 0.21, -74.31 106.78 80
7 06/02/2024 07:50:50 0.01, -75.27 0.97, -79.61 495.12 80
8 06/03/2024 07:29:37 0.00, -75.28 -0.01, -75.11 19.19 80
9 06/05/2024 19:35:58 0.00, -75.31 -0.17, -75.95 73.97 80
10 06/06/2024 19:14:45 0.00, -75.32 0.88, -71.46 440.68 80
